Walbridge, OH

6:22 PM EDT on August 31, 2016 (GMT -0400)
Metcalf

Weather History for KTDZ - May, 2013

Change the Weather History Date:

Monday, May 13, 2013

  Actual Average (KTOL) Record (KTOL)
Temperature  
Mean Temperature 42 °F 59 °F  
Max Temperature 57 °F 70 °F 89 °F (1991)
Min Temperature 30 °F 48 °F 30 °F (1946)
Degree Days  
Heating Degree Days 22 7  
Month to date heating degree days 115  
Since 1 July heating degree days 6017  
Cooling Degree Days 0 1  
Month to date cooling degree days 10  
Year to date cooling degree days 18  
Moisture  
Dew Point 24 °F    
Average Humidity 51    
Maximum Humidity 79    
Minimum Humidity 26    
Precipitation  
Precipitation 0.00 in 0.11 in 0.94 in (1978)
Month to date precipitation 1.42  
Year to date precipitation 11.21  
Snow  
Snow 0.00 in 0.00 in - ()
Month to date snowfall 0.1  
Since 1 July snowfall 37.6  
Snow Depth -    
Sea Level Pressure  
Sea Level Pressure 30.16 in    
Wind  
Wind Speed 6 mph (West)    
Max Wind Speed 15 mph    
Max Gust Speed 25 mph    
Visibility 10 miles    
Events      
T = Trace of Precipitation, MM = Missing Value Source: NWS Daily Summary

Daily Weather History Graph

Daily Weather History Graph

Search for Another Location

Airport or City:

Trip Planner

Search our weather history database for the weather conditions in past years. The results will help you decide how hot, cold, wet, or windy it might be!

Date:

Astronomy

May. 13, 2013 Rise Set
Actual Time 6:16 AM EDT 8:44 PM EDT
Civil Twilight 5:44 AM EDT 9:16 PM EDT
Nautical Twilight 5:05 AM EDT 9:55 PM EDT
Astronomical Twilight 4:22 AM EDT 10:39 PM EDT
Moon 9:01 AM EDT (5/13) 11:53 PM EDT (5/13)
Length of Visible Light 15h 31m
Length of Day
14h 28m
Waxing Crescent, 12% of the Moon is Illuminated
May 13
Waxing Crescent
May 18
First Quarter
May 25
Full
May 31
Last Quarter
Jun 8
New

Hourly Weather History & Observations

Time (EDT) Temp. Windchill Dew Point Humidity Pressure Visibility Wind Dir Wind Speed Gust Speed Precip Events Conditions
12:53 AM 36.0 °F 32.1 °F 25.0 °F 64% 30.13 in 10.0 mi WSW 4.6 mph - N/A   Clear
1:53 AM 34.0 °F 29.8 °F 26.1 °F 73% 30.12 in 10.0 mi SW 4.6 mph - N/A   Clear
2:53 AM 33.1 °F 30.0 °F 26.1 °F 75% 30.12 in 10.0 mi WSW 3.5 mph - N/A   Clear
3:53 AM 33.1 °F 27.7 °F 27.0 °F 78% 30.13 in 10.0 mi West 5.8 mph - N/A   Mostly Cloudy
4:53 AM 30.9 °F 25.2 °F 25.0 °F 79% 30.13 in 10.0 mi West 5.8 mph - N/A   Clear
5:53 AM 30.9 °F 25.2 °F 25.0 °F 79% 30.13 in 10.0 mi WNW 5.8 mph - N/A   Partly Cloudy
6:53 AM 32.0 °F - 26.1 °F 79% 30.14 in 10.0 mi Calm Calm - N/A   Clear
7:53 AM 37.9 °F 33.5 °F 28.0 °F 68% 30.16 in 10.0 mi WNW 5.8 mph - N/A   Clear
8:53 AM 42.1 °F 36.6 °F 23.0 °F 47% 30.18 in 10.0 mi NW 9.2 mph - N/A   Clear
9:53 AM 44.1 °F 39.5 °F 21.0 °F 40% 30.20 in 10.0 mi NNW 8.1 mph - N/A   Clear
10:53 AM 46.0 °F 41.0 °F 21.9 °F 39% 30.20 in 10.0 mi West 10.4 mph 17.3 mph N/A   Clear
11:53 AM 48.9 °F - 21.9 °F 35% 30.20 in 10.0 mi NNW 10.4 mph - N/A   Clear
12:53 PM 51.1 °F - 23.0 °F 33% 30.20 in 10.0 mi NW 13.8 mph - N/A   Clear
1:53 PM 53.1 °F - 23.0 °F 31% 30.19 in 10.0 mi WNW 11.5 mph 25.3 mph N/A   Clear
2:53 PM 55.9 °F - 23.0 °F 28% 30.18 in 10.0 mi West 15.0 mph 21.9 mph N/A   Clear
4:53 PM 55.0 °F - 21.0 °F 27% 30.15 in 10.0 mi Variable 3.5 mph - N/A   Partly Cloudy
5:53 PM 55.9 °F - 21.0 °F 26% 30.14 in 10.0 mi West 10.4 mph - N/A   Partly Cloudy
6:53 PM 55.9 °F - 21.9 °F 27% 30.13 in 10.0 mi NW 5.8 mph - N/A   Partly Cloudy
8:53 PM 52.0 °F - 21.9 °F 31% 30.14 in 10.0 mi Calm Calm - N/A   Clear
9:53 PM 46.0 °F 42.5 °F 27.0 °F 47% 30.15 in 10.0 mi SE 6.9 mph - N/A   Clear
10:53 PM 44.1 °F 39.5 °F 28.0 °F 53% 30.15 in 10.0 mi SSE 8.1 mph - N/A   Clear
11:53 PM 44.1 °F 39.5 °F 28.9 °F 55% 30.14 in 10.0 mi SSE 8.1 mph - N/A   Clear